Location: Newark
(30.1000°N, 109.4667°E)
Time: 11:24:18
(UTC+00:00)

SR - Pass Details

Date: 18 February 2020
Orbit: 578 x 878 km, 66.7° (Epoch: 06 April)

Event Time Altitude Azimuth Distance (km) Brightness Sun altitude
Rises 18:08:46 0° 338° (NNW) 3,222 - -65.0°
Reaches altitude 10° 18:11:17 10° 342° (NNW) 2,244 - -64.6°
Maximum altitude 18:16:20 63° 63° (ENE) 770 - -63.8°
Drops below altitude 10° 18:20:55 10° 145° (SE) 2,042 - -63.0°
Sets 18:23:07 0° 148° (SSE) 2,908 - -62.6°
